Weather in Aalborg

Denmark     57°02′58″N   9°54′58″E
temp.,
°C
wind,
m/s
gust,
m/s
humid.,
%
clouds,
%
prec.,
mm/h
press.,
hPa
HPBL,
m
8 march, mon
mon801:000n235929 0.0 102337
04:000nne126473 0.0 102222
07:00−1nnw116064 0.0 102321
10:00+3ne124253 0.0 1024504
13:00+5ese113764 0.0 10251194
16:00+4se2143100 0.0 1023752
19:00−1sse336197 0.0 102357
22:00−1s336457 0.0 102276
9 march, tue
tue901:00−2ssw365629 0.0 1021120
04:00−2sw35570 0.0 1019122
07:00−2sw35610 0.0 1019128
10:00+2wsw34481 0.0 1019359
13:00+5w34401 0.0 10201072
16:00+5w33470 0.0 10191025
19:000nnw22720 0.0 102022
22:00−1e11790 0.0 102021
10 march, wed
wed1001:00−1s11780 0.0 102021
04:00−1se22780 0.0 101922
07:00−1sse33760 0.0 101963
10:00+3sse695435 0.0 1018616
13:00+5sse7104568 0.0 1017978
16:00+4sse71154100 0.0 1015912
19:00+2sse71474100 0.0 1012646
22:00+3sse81494100 0.4 1010604
11 march, thu
thu1101:00+4sse91692100 1.1 1005675
04:00+4sse101793100 3.4 1000796
07:00+4sse121992100 7.0 995813
10:00+5s101892100 4.9 990801
13:00+7sw71391100 9.0 988926
16:00+6ssw81585100 0.6 9861066
19:00+6sw91689100 2.8 986967
22:00+5sw101690100 2.1 9881011
12 march, fri
fri1201:00+5wsw81489100 4.6 989933
04:00+4wsw71485100 0.1 990746
07:00+3wsw8168393 0.1 992840
10:00+5wsw10157565 0.4 9941413
13:00+6wsw11157483 1.6 9951526
16:00+6wsw91475100 0.8 9961453
19:00+3sw4118891 1.0 995466
22:00+2sw51095100 0.0 995304